EW2960 Weather Reports


time (UTC)temp
F
wind
direction
speed
knots
gust
knots
rain 1hr
in
rain 24hr
in
rain mn
in
humidity
%
barometer
mb
20260510032410 55 271 0.0 0.0 0.31 0.93 0.93 99 1005.8
20260510031905 54 272 0.0 0.0 0.00 0.88 0.88 99 1005.2
20260510031400 54 118 0.0 0.0 0.00 0.88 0.88 99 1004.4
20260510030855 54 295 0.0 0.0 0.00 0.88 0.88 99 1004.6
20260510030351 54 154 0.9 1.7 0.05 0.88 0.88 99 1004.6
20260510025849 54 127 1.7 1.7 0.24 0.88 0.88 99 1004.9
20260510025347 54 282 0.0 0.9 0.19 0.87 0.87 99 1005.1
20260510024843 54 271 0.0 0.0 0.00 0.84 0.84 99 1005.0
20260510024340 54 153 1.7 1.7 0.00 0.84 0.84 99 1004.3
20260510023836 54 52 0.9 0.9 0.00 0.84 0.84 99 1004.7
20260510023333 54 133 0.9 1.7 0.00 0.84 0.84 99 1004.7
20260510022830 54 347 0.0 0.0 0.00 0.84 0.84 99 1004.8
20260510022329 54 252 0.0 0.0 0.00 0.84 0.84 99 1004.6
20260510021828 54 90 0.0 0.0 0.00 0.84 0.84 99 1004.4
20260510021327 54 3 0.0 0.0 0.00 0.84 0.84 99 1004.3
20260510020822 54 286 0.0 0.0 0.00 0.84 0.84 99 1004.7
20260510020317 54 273 0.0 0.0 0.00 0.84 0.84 99 1004.8
20260510015813 54 290 0.0 0.0 0.00 0.84 0.84 99 1004.8
20260510015310 54 308 0.0 0.0 0.00 0.84 0.84 99 1004.7
20260510014805 54 308 0.0 0.0 0.00 0.84 0.84 99 1004.4
20260510014302 54 309 0.0 0.0 0.00 0.84 0.84 99 1004.3
20260510013758 54 295 0.0 0.0 0.00 0.84 0.84 99 1004.2
20260510013254 54 295 0.0 0.0 0.05 0.84 0.84 99 1004.4
20260510012749 54 318 0.0 0.0 0.05 0.84 0.84 99 1004.3
20260510012244 54 289 0.0 0.0 0.07 0.83 0.83 99 1004.2
20260510011743 55 114 1.7 1.7 0.19 0.83 0.83 99 1004.4
20260510011239 54 295 0.0 0.0 0.12 0.82 0.82 99 1004.4
20260510010737 54 194 0.9 0.9 0.07 0.80 0.80 99 1004.7
20260510010233 54 280 0.0 0.0 0.12 0.80 0.80 99 1004.3
20260510005730 54 298 0.0 0.0 0.17 0.79 0.79 99 1004.7
20260510005226 54 309 0.0 0.0 0.42 0.78 0.78 99 1004.7
20260510004724 54 260 1.7 1.7 0.54 0.76 0.76 99 1004.8
20260510004222 54 290 0.9 1.7 0.38 0.72 0.72 98 1004.9
20260510003719 54 287 0.0 0.9 0.31 0.67 0.67 98 1004.7
20260510003215 54 268 1.7 2.6 1.13 0.66 0.66 97 1004.4
20260510002714 54 291 1.7 1.7 1.56 0.63 0.63 95 1004.3
20260510002212 56 298 4.3 6.1 0.61 0.46 0.46 91 1004.3
20260510001709 58 324 1.7 2.6 0.00 0.36 0.36 83 1003.9
20260510001207 63 317 2.6 3.5 0.00 0.36 0.36 73 1004.1
20260510000702 64 307 2.6 2.6 0.00 0.36 0.36 66 1002.7
20260510000200 65 290 0.0 0.0 0.00 0.36 0.36 67 1002.3
20260509235656 65 260 0.0 0.0 0.00 0.36 0.36 66 1002.5
20260509235152 65 184 0.9 1.7 0.00 0.36 0.36 65 1002.2
20260509234649 65 164 0.0 0.0 0.00 0.36 0.36 65 1002.2
20260509234146 66 168 0.0 0.9 0.00 0.36 0.36 65 1001.9
20260509233644 66 65 1.7 3.5 0.00 0.36 0.36 64 1001.9
20260509233141 66 257 0.0 0.0 0.00 0.36 0.36 64 1001.6
20260509232637 66 314 0.9 0.9 0.00 0.36 0.36 65 1001.9
20260509232134 66 262 0.9 1.7 0.00 0.36 0.36 63 1001.8
20260509231631 66 227 2.6 3.5 0.00 0.36 0.36 63 1001.5
20260509231128 66 285 0.0 0.0 0.00 0.36 0.36 64 1001.6
20260509230625 66 275 0.9 1.7 0.00 0.36 0.36 63 1001.3
20260509230122 67 234 0.9 0.9 0.00 0.36 0.36 61 1001.3
20260509225618 67 145 0.9 1.7 0.00 0.36 0.36 61 1001.4
20260509225113 67 71 0.0 0.9 0.00 0.36 0.36 61 1001.7
20260509224609 67 98 0.9 0.9 0.00 0.36 0.36 63 1001.5
20260509224106 67 198 2.6 2.6 0.00 0.36 0.36 60 1001.5
20260509223603 68 156 1.7 3.5 0.00 0.36 0.36 62 1001.8
20260509223101 68 152 3.5 3.5 0.00 0.36 0.36 59 1001.6
20260509222557 68 195 2.6 2.6 0.00 0.36 0.36 59 1001.6
20260509222053 68 126 5.2 7.8 0.00 0.36 0.36 58 1001.4
20260509221548 68 280 0.9 0.9 0.00 0.36 0.36 62 1001.5
20260509221045 68 310 0.0 0.9 0.00 0.36 0.36 61 1001.7
20260509220541 68 162 9.6 12.2 0.00 0.36 0.36 58 1001.4
20260509220037 68 124 1.7 2.6 0.00 0.36 0.36 59 1001.4
20260509215532 68 149 1.7 2.6 0.00 0.36 0.36 61 1001.6
20260509215030 68 134 4.3 7.0 0.00 0.36 0.36 61 1001.8
20260509214527 68 175 2.6 3.5 0.00 0.36 0.36 60 1001.5
20260509214024 68 249 0.0 0.9 0.00 0.36 0.36 61 1001.7
20260509213520 68 279 0.0 0.9 0.00 0.36 0.36 63 1001.7
20260509213017 68 263 0.9 0.9 0.00 0.36 0.36 62 1001.7
20260509212514 68 137 1.7 2.6 0.00 0.36 0.36 62 1001.7
20260509212011 68 106 2.6 3.5 0.00 0.36 0.36 62 1001.8
20260509211506 68 140 5.2 6.1 0.00 0.36 0.36 59 1001.6
20260509211003 68 127 3.5 7.0 0.00 0.36 0.36 61 1001.5
20260509210500 68 260 0.0 0.9 0.00 0.36 0.36 61 1001.5
20260509205956 68 268 0.9 0.9 0.00 0.36 0.36 62 1001.8
20260509205450 68 27 0.9 1.7 0.00 0.36 0.36 61 1001.7
20260509204946 68 245 0.9 0.9 0.00 0.36 0.36 61 1002.0
20260509204443 68 303 0.9 1.7 0.00 0.36 0.36 63 1001.9
20260509203940 68 175 1.7 2.6 0.00 0.36 0.36 60 1002.0
20260509203435 68 114 3.5 5.2 0.00 0.36 0.36 60 1002.2
20260509202933 68 65 1.7 1.7 0.00 0.36 0.36 61 1002.2
20260509202429 68 142 5.2 7.0 0.00 0.36 0.36 60 1002.5
20260509201924 68 233 6.1 7.8 0.00 0.36 0.36 60 1002.5
20260509201420 68 176 3.5 3.5 0.00 0.36 0.36 61 1002.5
20260509200917 68 288 1.7 1.7 0.00 0.36 0.36 62 1002.8
20260509200417 69 52 1.7 2.6 0.00 0.36 0.36 60 1002.7
20260509195913 68 317 0.9 0.9 0.00 0.36 0.36 65 1002.7
20260509195408 68 125 2.6 5.2 0.00 0.36 0.36 65 1002.7
20260509194903 67 134 1.7 2.6 0.00 0.36 0.36 65 1002.9
20260509194359 67 220 2.6 2.6 0.00 0.36 0.36 65 1003.1
20260509193856 67 200 0.9 1.7 0.00 0.36 0.36 67 1003.0
20260509193356 67 242 0.9 0.9 0.00 0.36 0.36 67 1002.8
20260509192852 66 143 4.3 7.8 0.00 0.36 0.36 68 1003.3
20260509192348 67 239 1.7 2.6 0.00 0.36 0.36 70 1003.3
20260509191844 66 218 0.9 0.9 0.00 0.36 0.36 70 1003.3
20260509191340 66 226 1.7 1.7 0.00 0.36 0.36 71 1003.3
20260509190836 66 154 6.1 7.8 0.00 0.36 0.36 67 1003.4
20260509190333 67 240 0.9 0.9 0.00 0.36 0.36 70 1003.3
20260509185830 65 294 0.9 1.7 0.00 0.36 0.36 72 1003.1
20260509185327 66 137 5.2 6.1 0.00 0.36 0.36 68 1003.3
20260509184824 67 219 1.7 2.6 0.00 0.36 0.36 65 1003.4
20260509184321 66 177 1.7 2.6 0.00 0.36 0.36 68 1003.6
20260509183818 64 268 2.6 3.5 0.00 0.36 0.36 73 1003.6
20260509183313 64 60 0.9 0.9 0.00 0.36 0.36 71 1003.7
20260509182809 65 147 4.3 6.1 0.00 0.36 0.36 68 1003.6
20260509182307 65 230 4.3 6.1 0.00 0.36 0.36 68 1003.8
20260509181803 65 151 3.5 5.2 0.00 0.36 0.36 69 1003.4
20260509181301 66 265 0.9 0.9 0.00 0.36 0.36 69 1003.6
20260509180758 64 239 1.7 1.7 0.00 0.36 0.36 74 1003.5
20260509180254 65 260 0.9 1.7 0.00 0.36 0.36 70 1003.5
20260509175750 65 249 0.0 0.9 0.00 0.36 0.36 71 1003.6
20260509175247 64 127 1.7 2.6 0.00 0.36 0.36 72 1003.6
20260509174743 64 136 1.7 2.6 0.00 0.36 0.36 74 1003.7
20260509174238 65 197 1.7 1.7 0.00 0.36 0.36 72 1003.9
20260509173735 65 235 1.7 1.7 0.00 0.36 0.36 73 1003.7
20260509173230 64 278 0.9 1.7 0.00 0.36 0.36 74 1003.7
20260509172727 63 317 0.9 0.9 0.00 0.36 0.36 76 1003.8
20260509172223 64 194 0.9 1.7 0.00 0.36 0.36 76 1003.7
20260509171718 63 227 1.7 1.7 0.00 0.36 0.36 76 1003.9
20260509171215 64 222 0.0 0.0 0.00 0.36 0.36 77 1003.9
20260509170712 63 301 0.0 0.0 0.00 0.36 0.36 80 1003.7
20260509170208 63 249 0.9 1.7 0.00 0.36 0.36 80 1004.0
20260509165707 64 265 0.9 0.9 0.00 0.36 0.36 79 1004.0
20260509165202 62 198 1.7 1.7 0.00 0.36 0.36 80 1003.9
20260509164658 62 332 0.9 0.9 0.00 0.36 0.36 82 1004.0
20260509164154 61 308 0.9 0.9 0.00 0.36 0.36 85 1004.0
20260509163652 60 9 0.9 0.9 0.00 0.36 0.36 87 1004.0
20260509163148 59 332 0.9 1.7 0.00 0.36 0.36 87 1004.1
20260509162645 58 271 0.9 0.9 0.00 0.36 0.36 90 1004.3
20260509162141 58 277 1.7 1.7 0.00 0.36 0.36 88 1004.1
20260509161637 59 300 0.0 0.0 0.00 0.36 0.36 88 1004.1
20260509161132 59 284 0.0 0.9 0.00 0.36 0.36 88 1004.0
20260509160628 58 302 0.0 0.0 0.00 0.36 0.36 89 1004.0
20260509160124 57 315 0.0 0.0 0.00 0.36 0.36 91 1003.9
20260509155621 57 201 1.7 1.7 0.00 0.36 0.36 91 1004.3
20260509155116 57 313 0.0 0.0 0.00 0.36 0.36 92 1004.0
20260509154612 57 285 0.0 0.0 0.00 0.36 0.36 92 1004.2
20260509154110 57 290 0.0 0.0 0.00 0.36 0.36 92 1004.1
20260509153607 57 270 0.9 0.9 0.00 0.36 0.36 92 1004.0
20260509153104 57 288 0.9 0.9 0.00 0.36 0.36 91 1003.8
20260509152600 57 319 0.9 0.9 0.00 0.36 0.36 92 1004.0
20260509152057 57 283 0.0 0.0 0.00 0.36 0.36 94 1003.6
20260509151553 56 295 0.9 0.9 0.00 0.36 0.36 95 1004.0
20260509151051 55 323 1.7 1.7 0.00 0.36 0.36 95 1003.8
20260509150548 55 288 0.9 1.7 0.00 0.36 0.36 95 1004.1
20260509150047 55 202 0.9 0.9 0.00 0.36 0.36 96 1004.3
20260509145542 55 292 0.0 0.0 0.00 0.36 0.36 97 1004.0
20260509145037 55 254 0.9 0.9 0.00 0.36 0.36 97 1003.9
20260509144534 55 290 0.0 0.0 0.00 0.36 0.36 97 1003.9
20260509144032 54 133 4.3 6.1 0.00 0.36 0.36 98 1003.9
20260509143528 54 65 2.6 3.5 0.00 0.36 0.36 99 1003.7
20260509143027 53 309 0.0 0.0 0.00 0.36 0.36 99 1004.0
20260509142521 53 307 0.0 0.0 0.00 0.36 0.36 99 1004.1
20260509142017 53 289 0.0 0.0 0.00 0.36 0.36 99 1004.2
20260509141514 53 38 0.9 1.7 0.00 0.36 0.36 99 1004.0
20260509141011 53 280 0.0 0.0 0.00 0.36 0.36 99 1003.8
20260509140508 53 315 0.0 0.0 0.00 0.36 0.36 99 1003.8
20260509140006 53 286 0.0 0.9 0.00 0.36 0.36 99 1003.9
20260509135502 53 209 0.0 0.0 0.00 0.36 0.36 99 1004.0
20260509135000 53 202 0.0 0.0 0.00 0.36 0.36 99 1004.0
20260509134457 53 300 0.0 0.0 0.00 0.36 0.36 99 1004.0
20260509133955 52 334 0.0 0.0 0.00 0.36 0.36 99 1003.9
20260509133451 52 342 0.0 0.0 0.00 0.36 0.36 99 1003.9
20260509132949 52 176 0.9 1.7 0.00 0.36 0.36 99 1004.2
20260509132447 52 355 0.0 0.0 0.00 0.36 0.36 99 1004.2
20260509131944 52 311 0.0 0.0 0.00 0.36 0.36 99 1004.4
20260509131441 52 298 0.0 0.9 0.00 0.36 0.36 99 1004.2
20260509130937 51 284 0.0 0.0 0.00 0.36 0.36 99 1004.2
20260509130433 51 127 0.0 0.0 0.00 0.36 0.36 99 1004.2
20260509125930 51 170 0.9 0.9 0.00 0.36 0.36 99 1004.4
20260509125427 51 329 0.0 0.0 0.00 0.36 0.36 99 1004.3
20260509124923 51 289 0.0 0.0 0.00 0.36 0.36 99 1004.3
20260509124420 51 359 0.0 0.9 0.00 0.36 0.36 99 1004.3
20260509123917 51 108 0.0 0.0 0.00 0.36 0.36 99 1004.1
20260509123415 50 156 0.0 0.9 0.00 0.36 0.36 99 1003.9
20260509122910 50 6 0.0 0.0 0.00 0.36 0.36 99 1004.2
20260509122408 50 7 0.0 0.0 0.00 0.36 0.36 99 1004.6
20260509121904 50 7 0.0 0.0 0.00 0.36 0.36 99 1004.2
20260509121401 50 14 0.0 0.0 0.00 0.36 0.36 99 1004.4
20260509120859 50 35 0.0 0.0 0.00 0.36 0.36 99 1004.3
20260509120357 50 8 0.0 0.0 0.00 0.36 0.36 99 1004.4
20260509115854 50 47 0.0 0.0 0.00 0.36 0.36 99 1004.3
20260509115352 50 41 0.0 0.0 0.00 0.36 0.36 99 1004.7
20260509114849 50 48 0.9 0.9 0.00 0.36 0.36 99 1004.6
20260509114348 50 157 0.0 0.0 0.00 0.36 0.36 99 1004.6
20260509113847 50 157 0.0 0.0 0.00 0.36 0.36 99 1004.3
20260509113344 50 297 0.0 0.9 0.00 0.36 0.36 99 1004.1
20260509112840 50 289 0.0 0.0 0.00 0.36 0.36 99 1004.2
20260509112337 50 151 1.7 1.7 0.00 0.36 0.36 99 1004.3
20260509111834 50 255 0.0 0.0 0.00 0.36 0.36 99 1004.0
20260509111331 50 255 0.0 0.0 0.00 0.36 0.36 99 1004.1
20260509110829 49 301 0.0 0.0 0.00 0.36 0.36 99 1004.1
20260509110325 49 283 0.0 0.0 0.00 0.36 0.36 99 1004.1
20260509105823 49 265 0.0 0.0 0.00 0.36 0.36 99 1004.2
20260509105321 49 331 0.0 0.0 0.00 0.36 0.36 99 1004.1
20260509104817 49 268 0.0 0.0 0.05 0.36 0.36 99 1004.1
20260509104314 49 285 0.0 0.0 0.05 0.36 0.36 99 1004.3
20260509103812 49 253 0.9 0.9 0.00 0.35 0.35 99 1004.1
20260509103309 49 303 0.0 0.0 0.00 0.35 0.35 99 1004.3
20260509102808 49 283 0.0 0.0 0.00 0.35 0.35 99 1004.3
20260509102306 49 27 0.0 0.0 0.00 0.35 0.35 99 1004.1
20260509101800 49 319 0.0 0.0 0.00 0.35 0.35 99 1004.2
20260509101257 49 277 0.0 0.9 0.07 0.35 0.35 99 1004.2
20260509100754 49 148 0.9 1.7 0.07 0.35 0.35 99 1004.4
20260509100252 49 43 0.9 0.9 0.00 0.34 0.34 99 1004.3
20260509095748 49 91 0.9 0.9 0.00 0.34 0.34 99 1004.2
20260509095245 49 158 0.0 0.0 0.00 0.34 0.34 99 1004.7
20260509094742 49 66 0.9 0.9 0.00 0.34 0.34 99 1004.3
20260509094239 49 330 0.0 0.0 0.00 0.34 0.34 99 1004.7
20260509093737 49 134 1.7 2.6 0.05 0.34 0.34 99 1004.7
20260509093234 49 281 0.9 0.9 0.05 0.34 0.34 99 1004.7
20260509092732 49 145 1.7 1.7 0.00 0.33 0.33 99 1004.3
20260509092230 49 340 0.0 0.0 0.00 0.33 0.33 99 1004.8
20260509091728 49 128 0.9 0.9 0.00 0.33 0.33 99 1004.9
20260509091224 49 29 0.9 1.7 0.07 0.33 0.33 99 1005.0
20260509090722 49 9 0.9 0.9 0.12 0.33 0.33 99 1004.9
20260509090218 49 355 0.0 0.0 0.05 0.32 0.32 99 1005.1
20260509085716 49 187 0.0 0.0 0.07 0.31 0.31 99 1005.1
20260509085213 49 215 0.0 0.9 0.14 0.31 0.31 99 1004.9
20260509084710 49 290 0.0 0.0 0.12 0.30 0.30 99 1005.0
20260509084206 49 344 0.0 0.0 0.12 0.29 0.29 99 1005.0
20260509083704 49 234 0.0 0.9 0.19 0.28 0.28 99 1005.0
20260509083201 49 247 0.0 0.0 0.17 0.27 0.27 99 1005.2
20260509082658 49 196 0.0 0.9 0.12 0.25 0.25 99 1005.3
20260509082154 49 155 1.7 2.6 0.19 0.24 0.24 99 1005.3
20260509081651 49 299 0.0 0.0 0.17 0.23 0.23 99 1005.2
20260509081148 49 106 0.9 1.7 0.19 0.21 0.21 99 1005.2
20260509080646 49 50 0.9 0.9 0.14 0.20 0.20 99 1005.4
20260509080144 49 222 0.0 0.0 0.05 0.18 0.18 99 1005.3
20260509075642 49 184 0.0 0.0 0.05 0.18 0.18 99 1005.4
20260509075140 49 171 0.9 0.9 0.00 0.17 0.17 99 1005.2
20260509074636 49 158 0.9 0.9 0.07 0.17 0.17 99 1005.4
20260509074133 49 294 0.0 0.0 0.12 0.17 0.17 99 1005.3
20260509073630 49 60 0.9 0.9 0.17 0.16 0.16 99 1005.7
20260509073126 48 285 0.0 0.0 0.24 0.15 0.15 99 1005.5
20260509072623 48 157 0.9 1.7 0.19 0.13 0.13 99 1005.3
20260509072120 48 124 1.7 1.7 0.12 0.11 0.11 99 1005.4
20260509071616 48 276 0.0 0.0 0.05 0.10 0.10 99 1005.5
20260509071114 49 289 0.0 0.9 0.07 0.09 0.09 99 1005.4
20260509070611 48 224 0.9 0.9 0.07 0.09 0.09 99 1005.4
20260509070107 49 112 0.9 1.7 0.00 0.08 0.08 99 1005.1
20260509065602 49 302 0.0 0.0 0.05 0.08 0.08 99 1005.4
20260509065059 49 302 0.0 0.0 0.12 0.08 0.08 99 1005.5
20260509064556 49 105 0.9 1.7 0.14 0.07 0.07 99 1005.4
20260509064054 49 261 0.0 0.9 0.07 0.06 0.06 99 1005.5
20260509063550 49 251 0.0 0.0 0.05 0.05 0.05 99 1005.5
20260509063047 49 251 0.0 0.0 0.05 0.05 0.05 99 1005.5
20260509062544 49 251 0.0 0.0 0.00 0.04 0.04 99 1005.5
20260509062042 49 251 0.0 0.0 0.00 0.04 0.04 99 1005.6
20260509061538 49 251 0.0 0.0 0.00 0.04 0.04 99 1005.6
20260509061036 49 253 0.0 0.0 0.00 0.04 0.04 99 1005.9
20260509060533 49 253 0.0 0.0 0.00 0.04 0.04 99 1005.8
20260509060029 49 276 0.0 0.9 0.00 0.04 0.04 99 1006.1
20260509055524 49 276 0.0 0.0 0.00 0.04 0.04 99 1006.2
20260509055020 49 305 0.0 0.0 0.00 0.04 0.04 99 1005.9
20260509054517 49 349 0.0 0.9 0.00 0.04 0.04 99 1005.8
20260509054015 49 253 0.0 0.0 0.00 0.04 0.04 99 1006.2
20260509053514 49 253 0.0 0.0 0.00 0.04 0.04 99 1006.1
20260509053010 49 256 0.0 0.0 0.07 0.04 0.04 99 1006.3
20260509052508 49 256 0.0 0.0 0.07 0.04 0.04 99 1006.2
20260509052006 49 256 0.0 0.0 0.00 0.03 0.03 99 1006.5
20260509051503 49 255 0.0 0.0 0.05 0.03 0.03 99 1006.6
20260509051000 49 267 0.0 0.0 0.05 0.03 0.03 99 1006.4
20260509050457 49 291 0.0 0.0 0.00 0.02 0.02 99 1006.6
20260509045953 49 291 0.0 0.0 0.00 0.02 0.02 99 1006.9
20260509045451 49 291 0.0 0.0 0.00 0.02 0.02 99 1006.5
20260509044947 49 291 0.0 0.0 0.07 0.02 0.02 99 1006.4
20260509044445 49 292 0.0 0.0 0.07 0.02 0.02 99 1006.5
20260509043942 49 293 0.0 0.0 0.00 0.01 0.01 99 1006.9
20260509043438 49 293 0.0 0.0 0.00 0.01 0.01 99 1006.6
20260509042933 49 293 0.0 0.0 0.05 0.01 0.01 99 1006.7
20260509042431 49 294 0.0 0.0 0.05 0.01 0.01 99 1006.7
20260509041927 49 278 0.0 0.0 0.00 0.00 0.00 99 1006.9
20260509041424 49 277 0.0 0.0 0.00 0.00 0.00 99 1007.1
20260509040922 49 278 0.0 0.0 0.00 0.00 0.00 99 1006.8
20260509040420 49 278 0.0 0.0 0.07 0.00 0.00 99 1006.9
20260509035916 49 282 0.0 0.0 0.07 0.12 0.12 99 1007.0
20260509035413 49 3 0.9 0.9 0.00 0.11 0.11 99 1007.3
20260509034909 50 300 0.0 0.0 0.00 0.11 0.11 99 1007.4
20260509034408 49 304 0.0 0.0 0.05 0.11 0.11 99 1007.3
20260509033904 49 201 0.9 0.9 0.05 0.11 0.11 99 1007.4
20260509033401 49 177 1.7 1.7 0.00 0.10 0.10 99 1007.6
20260509032858 50 105 0.9 0.9 0.00 0.10 0.10 99 1007.6